Regional Weather Roundup
Issued by NWS

Home | Current Version | Previous Version | Text Only | Print | Product List | Glossary On
Versions: 1 2 3 4 5 6 7 8 9 10 11 12 13 14 15 16 17 18 19 20 21 22 23 24 25 26 27 28 29 30 31 32 33 34 35 36 37 38 39 40 41 42 43 44 45 46 47 48 49 50
000
ASUS43 KMKX 170221
RWRWI

WISCONSIN REGIONAL WEATHER ROUNDUP
NATIONAL WEATHER SERVICE MILWAUKEE/SULLIVAN WI
900 PM CDT TUE SEP 16 2014

NOTE: "FAIR" INDICATES FEW OR NO CLOUDS BELOW 12,000 FEET WITH NO
SIGNIFICANT WEATHER AND/OR OBSTRUCTIONS TO VISIBILITY.

WIZ001-002-006>008-014>016-023>028-170300-
NORTHWEST WISCONSIN

CITY           SKY/WX    TMP DP  RH WIND       PRES   REMARKS
SUPERIOR ARPT  CLEAR     54  46  75 SW6       29.99S
ASHLAND        CLEAR     56  44  64 SW8       30.00S
HAYWARD        CLEAR     49  45  86 CALM      30.03S
SIREN          CLEAR     49  46  87 CALM      30.03S
RICE LAKE      CLEAR     47  45  92 CALM      30.05S
LADYSMITH      CLEAR     48  45  88 CALM      30.06S
EAU CLAIRE     CLEAR     50  44  80 CALM      30.04S
MENOMONIE      CLEAR     51  46  82 E3        30.04F
NEW RICHMOND   CLEAR     49  45  87 CALM      30.04S
OSCEOLA        CLEAR     49  49 100 CALM      30.05S
$$

WIZ003>005-009-010-017-018-170300-
NORTH CENTRAL WISCONSIN

CITY           SKY/WX    TMP DP  RH WIND       PRES   REMARKS
WOODRUFF       CLEAR     52  46  79 CALM      30.03S
RHINELANDER    CLEAR     47  42  83 W5        30.04S
EAGLE RIVER    CLEAR     46  44  91 SW5       30.02S
LAND O LAKES   CLOUDY    48  44  85 CALM      30.03S
PHILLIPS       CLEAR     48  44  84 SW5       30.03F
TOMAHAWK       FAIR      47  43  84 CALM      30.05F
MEDFORD        CLEAR     48  44  84 SW3       30.05S
MERRILL        PTCLDY    47  43  85 CALM      30.05S
$$

WIZ029-030-035-036-043>047-170300-
CENTRAL WISCONSIN

CITY           SKY/WX    TMP DP  RH WIND       PRES   REMARKS
WAUSAU         CLEAR     54  45  71 SW5       30.04F
MOSINEE        CLEAR     50  46  87 SW5       30.07S
MARSHFIELD     CLEAR     50  45  83 SW3       30.06S
STEVENS POINT  CLEAR     47  43  85 CALM      30.06F
WAUPACA        CLEAR     51  46  83 CALM      30.07F
WAUTOMA        CLEAR     47  45  93 CALM      30.08S
WISC RAPIDS    CLEAR     46  44  93 CALM      30.08S
CAMP DOUGLAS   CLEAR     43  43 100 E1        30.07S
$$

WIZ011>013-019>022-031-037>040-048>050-170300-
NORTHEAST WISCONSIN

CITY           SKY/WX    TMP DP  RH WIND       PRES   REMARKS
ANTIGO         CLEAR     48  44  84 W6        30.05F
STURGEON BAY   CLEAR     54  45  71 SW7       30.04S
GREEN BAY      CLEAR     52  46  80 S5        30.05S
MANITOWOC      CLEAR     54  46  74 SW6       30.07S
APPLETON       CLEAR     54  43  66 SW7       30.07S
CLINTONVILLE   CLEAR     54  45  71 W3        30.05F
OSHKOSH        CLEAR     55  43  63 SW6       30.07S
$$

WIZ032>034-041-042-053>061-170300-
SOUTHWEST WISCONSIN

CITY           SKY/WX    TMP DP  RH WIND       PRES   REMARKS
LA CROSSE      CLEAR     54  48  80 SE6       30.06R
SPARTA         CLEAR     48  46  93 CALM      30.08S
VIROQUA        FAIR      53  44  71 S3        30.07S
BOSCOBEL       CLEAR     49  46  90 CALM      30.08S
PRAIRIE DU CHI CLEAR     51  47  87 E3        30.07S
PLATTEVILLE    FAIR      53  44  71 CALM      30.09S
$$

WIZ056-057-062-063-064-067-068-170300-
SOUTH CENTRAL WISCONSIN

CITY           SKY/WX    TMP DP  RH WIND       PRES   REMARKS
BARABOO/DELLS  CLEAR     49  44  83 S3        30.08F
LONE ROCK      CLEAR     52  46  80 SE3       30.09S
WATERTOWN      CLEAR     46  46  97 CALM      30.09S
MADISON        CLEAR     49  45  86 CALM      30.09S
MIDDLETON      FAIR      47  47  98 CALM      30.09F
MONROE         CLEAR     55  43  62 CALM      30.09F
JANESVILLE     CLEAR     50  46  87 CALM      30.09R
$$

WIZ051-052-058>065-066-070>072-170300-
SOUTHEAST WISCONSIN

CITY           SKY/WX    TMP DP  RH WIND       PRES   REMARKS
MILWAUKEE      CLEAR     53  44  71 SW6       30.10S
WAUKESHA       CLEAR     46  43  87 CALM      30.11R
MILWAUKEE/TIMM NOT AVBL
RACINE         CLEAR     50  45  83 CALM      30.11S
BURLINGTON     CLEAR     44  44  99 CALM      30.10S FOG
KENOSHA        CLEAR     50  44  80 S5        30.10F
FOND DU LAC    CLEAR     49  44  83 SW6       30.08S
SHEBOYGAN      CLEAR     48  44  86 CALM      30.08S
WEST BEND      CLEAR     46  43  87 CALM      30.09S
JUNEAU         CLEAR     51  45  80 CALM      30.09F
$$

LSZ147-162-170300-
LAKE SUPERIOR

STATION/POSITION TIME  TEMP    WIND        PRES    WAVE
                       AIR SEA DIR/SP/G            HT/PER
                 (UTC) (F)     (DEG/KT/KT) (MB)    (FT/S)
W MID LAKE BUOY  0150   52 47   90/  4/  4 1015.2R   2/ 5
DEVILS ISLAND    0200   57     230/ 11/ 13 1014.8R
PORT WING        0100   59     200/  5/  7 1015.2S
SAXON HARBOR     0140   59     190/  3/  8 1015.6S
$$

LMZ867-665-643>646-170300-
LAKE MICHIGAN

STATION/POSITION TIME  TEMP    WIND        PRES    WAVE
                       AIR SEA DIR/SP/G            HT/PER
                 (UTC) (F)     (DEG/KT/KT) (MB)    (FT/S)
N MID LAKE BUOY  0150   59 59  220/ 16/ 19 1015.9R   3/ 5
NORTHPORT PIER   0100   57     190/  2/  5 1015.9R
KEWAUNEE LAKESHO 0200   56     230/  6/  8 1016.6F
SHEBOYGAN LAKESH 0200   55 49  220/  6/  6 1018.8F
PORT WASHINGTON  0140   54     260/  4/  5 1019.3S
ATWATER BUOY     0200   58     190/ 10/ 10 1019.8F
MILWAUKEE LAKESH 0200   56     180/  5/  6   N/A
S MID LAKE BUOY  0150   59 64  180/  4/  6 1019.6S   1
KENOSHA   LAKESH 0200   58     190/  6/  7 1019.0S
$$

TC  - TEMPERATURE IN CELSIUS
VSB - VISIBILITY IN STATUTE MILES
WCI - WIND CHILL INDEX
HX  - HEAT INDEX



USA.gov is the U.S. government's official web portal to all federal, state and local government web resources and services.